Location: PSU-Greenbush Astrophysical Observatory
(37.5140°N, 94.9880°W)
Time: 00:15:30
(UTC-06:00)

Altair - Pass Details

Date: 28 January 2020
Orbit: 1502 x 1682 km, 47.2° (Epoch: 17 February)

Event Time Altitude Azimuth Distance (km) Brightness Sun altitude
Rises 14:41:58 0° 301° (WNW) 4,937 10.2 26.6°
Reaches altitude 10° 14:45:12 10° 299° (WNW) 3,941 9.8 26.2°
Maximum altitude 14:55:05 61° 222° (SW) 1,833 9.0 25.0°
Drops below altitude 10° 15:04:41 10° 145° (SE) 3,825 9.9 23.9°
Sets 15:07:46 0° 142° (SE) 4,784 10.2 23.5°
